Zurück zum Katalog

FREGAT R/B

LostMEO
NORAD 40546·ROCKET BODY·🇷🇺 Russia

Gestartet Mar 27, 2015 von Guiana Space Centre

Loading…

Nächste Überflüge (nächste 24 Stunden)

TLE

VeraltetSource: Space-Track

Epoche: Jul 30, 2026, 11:30 UTC

1 40546U 15017C   26211.47951236 -.00000086  00000-0  00000-0 0  9997
2 40546  56.9688 344.4784 0017489 229.1127 130.7338  1.67685340 69471

Verfolge FREGAT R/B in Echtzeit mit AllMySat

Download on the App Store